Regional Weather Roundup
Issued by NWS

Home | Current Version | Previous Version | Graphics & Text | Print | Product List | Glossary On
Versions: 1 2 3 4 5 6 7 8 9 10 11 12 13 14 15 16 17 18 19 20 21 22 23 24 25 26 27 28 29 30 31 32 33 34 35 36 37 38 39 40 41 42 43 44 45 46 47 48 49 50
000
ASUS45 KSLC 271510
RWRUT

UTAH REGIONAL WEATHER ROUNDUP
NATIONAL WEATHER SERVICE SALT LAKE CITY UT
900 AM MDT WED AUG 27 2014

UTZ001>011-023>025-271600-

NORTHERN UTAH

CITY           SKY/WX    TMP DP  RH WIND       PRES   REMARKS
HILL AFB       PTSUNNY   59  50  71 E7        30.24R
LOGAN          LGT RAIN  57  55  93 W5        30.24R
OGDEN          CLOUDY    62  51  67 CALM      30.22R
PROVO AIRPORT  PTSUNNY   61  54  77 SE6       30.25R
SALT LAKE CITY PTSUNNY   62  56  80 SE6       30.21S
VERNAL         PTSUNNY   62  52  69 CALM      30.24F
WENDOVER       MOSUNNY   63  48  59 CALM      30.23R
HEBER CITY     CLOUDY    57  50  77 CALM      30.27S
WEST JORDAN    SUNNY     63  61  94 CALM      30.24R

$$

UTZ012>022-026-027-271600-

SOUTHERN UTAH

CITY           SKY/WX    TMP DP  RH WIND       PRES   REMARKS
BRYCE CANYON   SUNNY     49  42  77 SE3       30.39R
CEDAR CITY     SUNNY     56  45  66 NE3       30.29R
MILFORD        SUNNY     57  52  83 CALM      30.27R
MOAB/CYNLANDS  PTSUNNY   65  57  75 CALM      30.23R
PRICE          CLOUDY    56  50  80 E3        30.27R
ST GEORGE      PTSUNNY   64  52  63 S5        30.20S
KANAB            N/A     55  48  76 NW8       30.31

$$

REGIONAL REPORTS     COLORADO/ARIZONA

CITY           SKY/WX    TMP DP  RH WIND       PRES   REMARKS
CRAIG, CO      LGT RAIN  54  50  86 CALM      30.31S
GRAND JUNCTION PTSUNNY   58  55  90 SE8       30.24R
RIFLE          PTSUNNY   58  54  86 CALM      30.28S
MONTROSE       MOSUNNY   58  55  90 S7        30.32F
CORTEZ         CLOUDY    56  53  90 NE6       30.35S
PAGE, AZ       SUNNY     63  52  67 CALM      30.26S
GRAND CANYON   MOSUNNY   55  48  77 SE6       30.38R
KINGMAN        MOSUNNY   74  59  59 SE14      30.16R
FLAGSTAFF      CLOUDY    53  51  93 CALM      30.41S

$$

REGIONAL REPORTS    NEVADA/IDAHO/WYOMING

CITY           SKY/WX    TMP DP  RH WIND       PRES   REMARKS
LAS VEGAS, NV  SUNNY     77  46  33 S5        30.06R
ELY            MOSUNNY   47  42  83 S9        30.34R
ELKO           SUNNY     54  44  69 E5        30.28R
POCATELLO, ID  SUNNY     59  51  75 SW5       30.23R
BURLEY         SUNNY     59  51  75 SW5       30.21R
EVANSTON, WY   CLOUDY    51  47  86 S5        30.33S
ROCK SPRINGS   LGT RAIN  51  50  96 SE6       30.32R

$$


USA.gov is the U.S. government's official web portal to all federal, state and local government web resources and services.